Location: *
(46.1006°N, 1.8394°E)
Time: 12:15:58
(UTC+00:00)

Cosmos 1850 Rocket - Pass Details

Date: 20 September 2019
Orbit: 755 x 785 km, 74.0° (Epoch: 19 October)

Event Time Altitude Azimuth Distance (km) Brightness Sun altitude
Rises 20:03:54 0° 342° (NNW) 3,221 7.9 -22.3°
Reaches altitude 10° 20:06:22 10° 348° (NNW) 2,291 7.0 -22.7°
Maximum altitude 20:11:24 49° 63° (ENE) 967 4.2 -23.5°
Enters shadow 20:11:27 49° 65° (ENE) 967 4.2 -23.5°
